Starlink 31168

operational
NORAD ID: 58798 Int'l Des: 2024-012 Owner: SPXS Country: US Constellation: starlink
LEOCIRCULAR

关于 Starlink 31168

正在加载描述...

实时位置

正在加载3D地球...

即将过境

高度历史

Altitude vs Time

uPlot chart will show altitude changes over time

两行轨道根数

1 58798U 24012M 25258.50204077 .00000427 00000-0 25052-4 0 9994
2 58798 43.0031 74.5806 0001587 286.2069 73.8608 15.27581890 94443
Epoch: Sep 15, 2025 • Age: 16 hours

当前状态

高度 486.6 km
速度 7.63 km/s
星下点 39.85°N, 129.17°E
发射日期 Jan 15, 2024
运行时间 1.6 years
类型 internet

技术详情

分类 Payload
质量 730.00 kg
干质量 700.00 kg
总质量 730.00 kg
长度 0.30 m
直径 4.10 m
跨度 29.00 m
形状 Box + pan
制造商 SPXS
平台类型 Starlink V2M
阶段状态 In Orbit
所有者/国家 SPXS/US

大型星座

Loading constellations...